| time (UTC) | temp F | wind direction | speed knots | gust knots | rain 1hr in | rain 24hr in | rain mn in | humidity % | barometer mb |
| 20260506165321 | 56 | 248 | 4.3 | 15.6 | 0.00 | 0.34 | 0.06 | 47 | 1010.0 |
| 20260506164844 | 56 | 252 | 6.1 | 15.6 | 0.00 | 0.34 | 0.06 | 47 | 1010.3 |
| 20260506164341 | 56 | 211 | 4.3 | 18.2 | 0.00 | 0.34 | 0.06 | 46 | 1010.3 |
| 20260506163824 | 56 | 227 | 10.4 | 18.2 | 0.00 | 0.34 | 0.06 | 48 | 1010.3 |
| 20260506163314 | 56 | 218 | 3.5 | 10.4 | 0.00 | 0.34 | 0.06 | 47 | 1010.2 |
| 20260506162823 | 56 | 254 | 5.2 | 10.4 | 0.00 | 0.34 | 0.06 | 48 | 1010.2 |
| 20260506162326 | 55 | 284 | 1.7 | 7.8 | 0.00 | 0.34 | 0.06 | 51 | 1010.2 |
| 20260506161835 | 55 | 284 | 5.2 | 8.7 | 0.00 | 0.34 | 0.06 | 47 | 1010.1 |
| 20260506161324 | 55 | 285 | 1.7 | 10.4 | 0.00 | 0.34 | 0.06 | 50 | 1010.1 |
| 20260506160842 | 55 | 290 | 5.2 | 10.4 | 0.00 | 0.34 | 0.06 | 48 | 1010.1 |
| 20260506160328 | 55 | 263 | 2.6 | 7.8 | 0.00 | 0.34 | 0.06 | 50 | 1010.0 |
| 20260506155814 | 54 | 273 | 1.7 | 11.3 | 0.00 | 0.34 | 0.06 | 50 | 1010.0 |
| 20260506155325 | 54 | 259 | 5.2 | 13.0 | 0.00 | 0.34 | 0.06 | 47 | 1010.0 |
| 20260506154814 | 54 | 282 | 7.0 | 13.0 | 0.00 | 0.34 | 0.06 | 48 | 1009.9 |
| 20260506154320 | 54 | 264 | 3.5 | 6.1 | 0.00 | 0.34 | 0.06 | 48 | 1009.9 |
| 20260506153813 | 54 | 286 | 2.6 | 7.8 | 0.00 | 0.34 | 0.06 | 49 | 1009.9 |
| 20260506153339 | 54 | 304 | 4.3 | 10.4 | 0.00 | 0.34 | 0.06 | 50 | 1009.8 |
| 20260506152822 | 54 | 267 | 4.3 | 8.7 | 0.00 | 0.34 | 0.06 | 48 | 1009.8 |
| 20260506152327 | 54 | 286 | 4.3 | 8.7 | 0.00 | 0.34 | 0.06 | 50 | 1009.8 |
| 20260506151815 | 54 | 282 | 2.6 | 8.7 | 0.00 | 0.34 | 0.06 | 50 | 1009.7 |
| 20260506151319 | 54 | 297 | 4.3 | 7.8 | 0.00 | 0.34 | 0.06 | 49 | 1009.7 |
| 20260506150828 | 53 | 282 | 0.0 | 6.1 | 0.00 | 0.34 | 0.06 | 49 | 1009.7 |
| 20260506150313 | 53 | 283 | 0.9 | 7.8 | 0.00 | 0.34 | 0.06 | 50 | 1009.5 |
| 20260506145831 | 53 | 290 | 2.6 | 7.8 | 0.00 | 0.34 | 0.06 | 50 | 1009.5 |
| 20260506145337 | 53 | 281 | 3.5 | 7.8 | 0.00 | 0.34 | 0.06 | 52 | 1009.5 |
| 20260506144822 | 53 | 274 | 2.6 | 7.8 | 0.00 | 0.34 | 0.06 | 51 | 1009.3 |
| 20260506144333 | 53 | 271 | 2.6 | 7.0 | 0.00 | 0.34 | 0.06 | 50 | 1009.3 |
| 20260506143849 | 53 | 285 | 2.6 | 6.1 | 0.00 | 0.34 | 0.06 | 50 | 1009.3 |
| 20260506143315 | 53 | 287 | 2.6 | 6.1 | 0.00 | 0.34 | 0.06 | 52 | 1009.2 |
| 20260506142832 | 53 | 272 | 2.6 | 8.7 | 0.00 | 0.34 | 0.06 | 52 | 1009.2 |
| 20260506142318 | 53 | 274 | 1.7 | 8.7 | 0.00 | 0.34 | 0.06 | 51 | 1009.2 |
| 20260506141817 | 53 | 290 | 0.0 | 4.3 | 0.00 | 0.34 | 0.06 | 57 | 1009.2 |
| 20260506141338 | 53 | 290 | 0.9 | 9.6 | 0.00 | 0.34 | 0.06 | 58 | 1009.2 |
| 20260506140845 | 52 | 295 | 1.7 | 9.6 | 0.00 | 0.34 | 0.06 | 55 | 1009.2 |
| 20260506140351 | 52 | 304 | 0.0 | 7.0 | 0.00 | 0.34 | 0.06 | 57 | 1009.1 |
| 20260506135904 | 52 | 306 | 2.6 | 7.0 | 0.00 | 0.34 | 0.06 | 56 | 1009.1 |
| 20260506135328 | 52 | 274 | 0.0 | 7.0 | 0.00 | 0.34 | 0.06 | 61 | 1009.1 |
| 20260506134837 | 51 | 281 | 1.7 | 6.1 | 0.00 | 0.34 | 0.06 | 59 | 1009.1 |
| 20260506134324 | 51 | 287 | 1.7 | 4.3 | 0.00 | 0.34 | 0.06 | 62 | 1009.1 |
| 20260506133830 | 51 | 287 | 1.7 | 5.2 | 0.00 | 0.34 | 0.06 | 63 | 1009.1 |
| 20260506133341 | 50 | 288 | 1.7 | 5.2 | 0.00 | 0.34 | 0.06 | 64 | 1008.7 |
| 20260506132826 | 50 | 286 | 1.7 | 5.2 | 0.00 | 0.34 | 0.06 | 68 | 1008.7 |
| 20260506132314 | 50 | 298 | 0.9 | 6.1 | 0.00 | 0.34 | 0.06 | 67 | 1008.7 |
| 20260506131853 | 50 | 299 | 1.7 | 6.1 | 0.00 | 0.34 | 0.06 | 68 | 1008.7 |
| 20260506131320 | 49 | 295 | 0.0 | 3.5 | 0.00 | 0.34 | 0.06 | 72 | 1008.7 |
| 20260506130828 | 49 | 294 | 0.0 | 2.6 | 0.00 | 0.34 | 0.06 | 74 | 1008.7 |
| 20260506130317 | 48 | 296 | 0.0 | 5.2 | 0.00 | 0.34 | 0.06 | 75 | 1008.4 |
| 20260506125839 | 47 | 296 | 0.9 | 5.2 | 0.00 | 0.34 | 0.06 | 76 | 1008.4 |
| 20260506125326 | 47 | 296 | 1.7 | 7.8 | 0.00 | 0.34 | 0.06 | 79 | 1008.4 |
| 20260506124835 | 46 | 298 | 0.9 | 7.8 | 0.00 | 0.34 | 0.06 | 82 | 1008.5 |
| 20260506124319 | 46 | 301 | 1.7 | 6.1 | 0.00 | 0.34 | 0.06 | 83 | 1008.5 |
| 20260506123829 | 46 | 288 | 0.9 | 6.1 | 0.00 | 0.34 | 0.06 | 83 | 1008.5 |
| 20260506123314 | 46 | 284 | 0.0 | 5.2 | 0.00 | 0.34 | 0.06 | 82 | 1008.2 |
| 20260506122822 | 45 | 285 | 1.7 | 5.2 | 0.00 | 0.34 | 0.06 | 82 | 1008.2 |
| 20260506122331 | 45 | 246 | 0.0 | 0.9 | 0.00 | 0.34 | 0.06 | 81 | 1008.2 |
| 20260506121816 | 45 | 246 | 0.0 | 0.9 | 0.00 | 0.34 | 0.06 | 81 | 1008.0 |
| 20260506121325 | 45 | 246 | 0.0 | 1.7 | 0.00 | 0.34 | 0.06 | 81 | 1008.0 |
| 20260506120824 | 45 | 246 | 0.0 | 1.7 | 0.00 | 0.34 | 0.06 | 81 | 1008.0 |
| 20260506120333 | 45 | 246 | 0.0 | 0.9 | 0.00 | 0.34 | 0.06 | 80 | 1007.7 |
| 20260506115830 | 45 | 246 | 0.0 | 0.9 | 0.00 | 0.34 | 0.06 | 80 | 1007.7 |
| 20260506115325 | 45 | 246 | 0.0 | 0.0 | 0.00 | 0.34 | 0.06 | 80 | 1007.7 |
| 20260506114831 | 45 | 246 | 0.0 | 0.0 | 0.00 | 0.34 | 0.06 | 80 | 1007.6 |
| 20260506114322 | 45 | 246 | 0.0 | 0.0 | 0.00 | 0.34 | 0.06 | 80 | 1007.6 |
| 20260506113845 | 44 | 246 | 0.0 | 1.7 | 0.00 | 0.34 | 0.06 | 80 | 1007.6 |
| 20260506113332 | 45 | 246 | 0.0 | 1.7 | 0.00 | 0.34 | 0.06 | 80 | 1007.6 |
| 20260506112831 | 44 | 246 | 0.0 | 1.7 | 0.00 | 0.34 | 0.06 | 80 | 1007.6 |
| 20260506112319 | 44 | 246 | 0.0 | 3.5 | 0.00 | 0.34 | 0.06 | 80 | 1007.6 |
| 20260506111830 | 44 | 246 | 0.0 | 3.5 | 0.00 | 0.34 | 0.06 | 80 | 1007.5 |
| 20260506111322 | 44 | 246 | 0.0 | 3.5 | 0.00 | 0.34 | 0.06 | 80 | 1007.5 |
| 20260506110814 | 44 | 246 | 0.9 | 2.6 | 0.00 | 0.34 | 0.06 | 80 | 1007.5 |
| 20260506110326 | 44 | 245 | 0.9 | 3.5 | 0.00 | 0.34 | 0.06 | 80 | 1007.0 |
| 20260506105815 | 44 | 245 | 0.9 | 1.7 | 0.00 | 0.34 | 0.06 | 80 | 1007.0 |
| 20260506105328 | 44 | 245 | 0.9 | 4.3 | 0.00 | 0.34 | 0.06 | 80 | 1007.0 |
| 20260506104820 | 44 | 245 | 0.9 | 4.3 | 0.00 | 0.34 | 0.06 | 80 | 1006.6 |
| 20260506104316 | 44 | 240 | 0.0 | 1.7 | 0.00 | 0.34 | 0.06 | 80 | 1006.6 |
| 20260506103830 | 44 | 240 | 0.9 | 3.5 | 0.00 | 0.34 | 0.06 | 80 | 1006.6 |
| 20260506103321 | 44 | 235 | 0.0 | 3.5 | 0.00 | 0.34 | 0.06 | 80 | 1006.4 |
| 20260506102819 | 44 | 234 | 0.0 | 0.0 | 0.00 | 0.34 | 0.06 | 80 | 1006.4 |
| 20260506102329 | 44 | 234 | 0.0 | 3.5 | 0.00 | 0.34 | 0.06 | 80 | 1006.4 |
| 20260506101824 | 44 | 234 | 0.0 | 4.3 | 0.00 | 0.34 | 0.06 | 80 | 1006.8 |
| 20260506101315 | 44 | 234 | 1.7 | 6.1 | 0.00 | 0.34 | 0.06 | 80 | 1006.8 |
| 20260506100838 | 44 | 245 | 1.7 | 6.1 | 0.00 | 0.34 | 0.06 | 80 | 1006.8 |
| 20260506100325 | 44 | 250 | 1.7 | 4.3 | 0.00 | 0.34 | 0.06 | 80 | 1006.6 |
| 20260506095814 | 44 | 244 | 1.7 | 4.3 | 0.00 | 0.34 | 0.06 | 80 | 1006.6 |
| 20260506095327 | 44 | 250 | 1.7 | 4.3 | 0.00 | 0.34 | 0.06 | 80 | 1006.6 |
| 20260506094815 | 44 | 235 | 0.0 | 3.5 | 0.00 | 0.34 | 0.06 | 80 | 1006.3 |
| 20260506094324 | 44 | 233 | 0.9 | 3.5 | 0.00 | 0.34 | 0.06 | 81 | 1006.3 |
| 20260506093821 | 44 | 234 | 0.9 | 1.7 | 0.00 | 0.34 | 0.06 | 81 | 1006.3 |
| 20260506093354 | 44 | 233 | 0.9 | 1.7 | 0.00 | 0.34 | 0.06 | 81 | 1006.1 |
| 20260506092854 | 44 | 231 | 0.9 | 1.7 | 0.00 | 0.34 | 0.06 | 80 | 1006.1 |
| 20260506092324 | 44 | 229 | 0.0 | 0.9 | 0.00 | 0.34 | 0.06 | 80 | 1006.1 |
| 20260506091817 | 44 | 229 | 0.0 | 0.0 | 0.00 | 0.34 | 0.06 | 80 | 1006.7 |
| 20260506091327 | 44 | 229 | 0.0 | 1.7 | 0.00 | 0.34 | 0.06 | 80 | 1006.7 |
| 20260506090821 | 44 | 230 | 0.0 | 1.7 | 0.00 | 0.34 | 0.06 | 80 | 1006.7 |
| 20260506090331 | 44 | 230 | 0.9 | 3.5 | 0.00 | 0.34 | 0.06 | 80 | 1006.6 |
| 20260506085819 | 44 | 230 | 0.9 | 3.5 | 0.01 | 0.34 | 0.06 | 80 | 1006.6 |
| 20260506085329 | 44 | 233 | 0.9 | 1.7 | 0.01 | 0.34 | 0.06 | 80 | 1006.6 |
| 20260506084820 | 44 | 233 | 0.0 | 0.0 | 0.01 | 0.34 | 0.06 | 80 | 1006.6 |
| 20260506084341 | 44 | 233 | 0.0 | 0.0 | 0.01 | 0.34 | 0.06 | 80 | 1006.6 |
| 20260506083827 | 44 | 233 | 0.0 | 0.0 | 0.01 | 0.34 | 0.06 | 80 | 1006.6 |
| 20260506083337 | 44 | 233 | 0.0 | 0.9 | 0.01 | 0.34 | 0.06 | 80 | 1006.5 |
| 20260506082847 | 44 | 233 | 0.0 | 1.7 | 0.01 | 0.34 | 0.06 | 81 | 1006.5 |
| 20260506082315 | 44 | 233 | 0.9 | 1.7 | 0.01 | 0.34 | 0.06 | 81 | 1006.5 |
| 20260506081825 | 44 | 233 | 0.9 | 3.5 | 0.02 | 0.34 | 0.06 | 80 | 1006.2 |
| 20260506081332 | 44 | 234 | 0.9 | 1.7 | 0.02 | 0.34 | 0.06 | 80 | 1006.2 |
| 20260506080837 | 44 | 235 | 0.9 | 1.7 | 0.02 | 0.34 | 0.06 | 80 | 1006.2 |
| 20260506080323 | 44 | 235 | 0.0 | 0.0 | 0.02 | 0.35 | 0.06 | 80 | 1005.8 |
| 20260506073328 | 44 | 235 | 0.0 | 0.0 | 0.02 | 0.34 | 0.05 | 80 | 1006.6 |
| 20260506072823 | 44 | 235 | 0.0 | 0.0 | 0.02 | 0.34 | 0.05 | 80 | 1006.6 |
| 20260506072343 | 44 | 235 | 0.0 | 0.9 | 0.02 | 0.34 | 0.05 | 80 | 1006.6 |
| 20260506071832 | 44 | 235 | 0.0 | 1.7 | 0.01 | 0.33 | 0.04 | 80 | 1006.8 |
| 20260506071317 | 44 | 235 | 0.0 | 3.5 | 0.01 | 0.33 | 0.04 | 80 | 1006.8 |
| 20260506070844 | 44 | 236 | 0.9 | 3.5 | 0.02 | 0.33 | 0.04 | 80 | 1006.8 |
| 20260506070314 | 45 | 257 | 0.9 | 3.5 | 0.02 | 0.33 | 0.04 | 80 | 1006.3 |
| 20260506062325 | 45 | 258 | 0.0 | 1.7 | 0.02 | 0.32 | 0.03 | 80 | 1006.7 |
| 20260506061815 | 45 | 258 | 0.0 | 3.5 | 0.02 | 0.32 | 0.03 | 80 | 1006.8 |
| 20260506061353 | 45 | 259 | 0.9 | 2.6 | 0.02 | 0.32 | 0.03 | 80 | 1006.8 |
| 20260506060825 | 45 | 269 | 0.0 | 1.7 | 0.01 | 0.31 | 0.02 | 79 | 1006.8 |
| 20260506060335 | 45 | 269 | 0.0 | 1.7 | 0.01 | 0.31 | 0.02 | 80 | 1006.6 |
| 20260506051319 | 46 | 269 | 0.0 | 0.0 | 0.01 | 0.30 | 0.01 | 80 | 1006.8 |
| 20260506050829 | 46 | 269 | 0.0 | 0.0 | 0.01 | 0.30 | 0.01 | 80 | 1006.8 |
| 20260506050316 | 46 | 269 | 0.0 | 0.0 | 0.01 | 0.30 | 0.01 | 80 | 1006.7 |
| 20260506044821 | 46 | 269 | 0.0 | 0.0 | 0.01 | 0.30 | 0.01 | 80 | 1006.6 |
| 20260506044317 | 46 | 269 | 0.0 | 0.0 | 0.01 | 0.30 | 0.01 | 80 | 1006.6 |
| 20260506043826 | 46 | 269 | 0.0 | 0.0 | 0.01 | 0.30 | 0.01 | 80 | 1006.6 |
| 20260506043341 | 46 | 269 | 0.0 | 0.0 | 0.00 | 0.29 | 0.00 | 80 | 1006.7 |
| 20260506042838 | 46 | 269 | 0.0 | 0.0 | 0.00 | 0.29 | 0.00 | 80 | 1006.7 |
| 20260506042345 | 46 | 269 | 0.0 | 0.0 | 0.00 | 0.29 | 0.00 | 80 | 1006.7 |
| 20260506041815 | 46 | 269 | 0.0 | 0.0 | 0.00 | 0.29 | 0.00 | 80 | 1006.7 |
| 20260506041332 | 46 | 269 | 0.0 | 0.0 | 0.00 | 0.29 | 0.00 | 80 | 1006.7 |
| 20260506040823 | 45 | 269 | 0.0 | 0.0 | 0.00 | 0.29 | 0.00 | 80 | 1006.7 |
| 20260506040319 | 45 | 269 | 0.0 | 0.0 | 0.00 | 0.29 | 0.29 | 80 | 1006.6 |
| 20260506035830 | 46 | 269 | 0.0 | 0.0 | 0.00 | 0.29 | 0.29 | 80 | 1006.6 |
| 20260506035321 | 46 | 269 | 0.0 | 0.0 | 0.01 | 0.29 | 0.29 | 80 | 1006.6 |
| 20260506034828 | 46 | 269 | 0.0 | 0.0 | 0.01 | 0.29 | 0.29 | 80 | 1006.5 |
| 20260506034318 | 46 | 269 | 0.0 | 0.0 | 0.01 | 0.29 | 0.29 | 80 | 1006.5 |
| 20260506033833 | 46 | 269 | 0.0 | 0.0 | 0.01 | 0.29 | 0.29 | 80 | 1006.5 |
| 20260506033319 | 46 | 269 | 0.0 | 0.0 | 0.01 | 0.29 | 0.29 | 80 | 1006.5 |
| 20260506032832 | 46 | 269 | 0.0 | 0.0 | 0.01 | 0.29 | 0.29 | 80 | 1006.5 |
| 20260506032324 | 46 | 269 | 0.0 | 0.0 | 0.01 | 0.29 | 0.29 | 80 | 1006.5 |
| 20260506031843 | 46 | 269 | 0.0 | 0.0 | 0.01 | 0.29 | 0.29 | 80 | 1006.6 |
| 20260506031336 | 46 | 269 | 0.0 | 0.0 | 0.01 | 0.29 | 0.29 | 80 | 1006.6 |
| 20260506030825 | 46 | 269 | 0.0 | 0.9 | 0.02 | 0.29 | 0.29 | 80 | 1006.6 |
| 20260506030329 | 46 | 269 | 0.0 | 1.7 | 0.02 | 0.29 | 0.29 | 80 | 1006.6 |
| 20260506025817 | 46 | 269 | 0.0 | 3.5 | 0.02 | 0.29 | 0.29 | 80 | 1006.6 |
| 20260506025346 | 46 | 269 | 0.9 | 3.5 | 0.02 | 0.28 | 0.28 | 80 | 1006.6 |
| 20260506024810 | 47 | 269 | 0.0 | 5.2 | 0.02 | 0.28 | 0.28 | 81 | 1006.6 |
| 20260506024353 | 48 | 261 | 2.6 | 5.2 | 0.02 | 0.28 | 0.28 | 80 | 1006.6 |
| 20260506023819 | 48 | 261 | 1.7 | 5.2 | 0.03 | 0.28 | 0.28 | 79 | 1006.6 |
| 20260506023326 | 48 | 258 | 0.0 | 4.3 | 0.03 | 0.28 | 0.28 | 79 | 1006.6 |
| 20260506022831 | 48 | 253 | 0.9 | 4.3 | 0.03 | 0.28 | 0.28 | 79 | 1006.6 |
| 20260506022326 | 48 | 253 | 0.0 | 1.7 | 0.03 | 0.28 | 0.28 | 79 | 1006.6 |
| 20260506021832 | 48 | 253 | 0.0 | 4.3 | 0.03 | 0.28 | 0.28 | 79 | 1006.7 |
| 20260506021323 | 49 | 253 | 0.9 | 4.3 | 0.04 | 0.28 | 0.28 | 79 | 1006.7 |
| 20260506020816 | 49 | 252 | 0.0 | 0.0 | 0.03 | 0.27 | 0.27 | 79 | 1006.7 |
| 20260506020335 | 49 | 252 | 0.0 | 0.0 | 0.04 | 0.27 | 0.27 | 79 | 1006.5 |
| 20260506015819 | 49 | 252 | 0.0 | 3.5 | 0.04 | 0.27 | 0.27 | 79 | 1006.5 |
| 20260506015326 | 49 | 252 | 0.0 | 3.5 | 0.03 | 0.26 | 0.26 | 79 | 1006.5 |
| 20260506014814 | 49 | 252 | 0.0 | 4.3 | 0.03 | 0.26 | 0.26 | 79 | 1006.3 |
| 20260506014321 | 49 | 252 | 0.0 | 4.3 | 0.03 | 0.26 | 0.26 | 79 | 1006.3 |
| 20260506013853 | 49 | 255 | 0.0 | 4.3 | 0.03 | 0.25 | 0.25 | 79 | 1006.3 |
| 20260506013321 | 49 | 258 | 1.7 | 3.5 | 0.03 | 0.25 | 0.25 | 79 | 1006.0 |
| 20260506012852 | 49 | 259 | 0.0 | 0.0 | 0.03 | 0.25 | 0.25 | 79 | 1006.0 |
| 20260506012318 | 49 | 259 | 0.0 | 0.0 | 0.03 | 0.25 | 0.25 | 79 | 1006.0 |
| 20260506011830 | 49 | 259 | 0.0 | 0.0 | 0.03 | 0.25 | 0.25 | 79 | 1006.0 |
| 20260506011319 | 49 | 259 | 0.0 | 0.0 | 0.02 | 0.24 | 0.24 | 79 | 1006.0 |
| 20260506010903 | 49 | 259 | 0.0 | 0.0 | 0.02 | 0.24 | 0.24 | 80 | 1006.0 |
| 20260506010332 | 49 | 259 | 0.0 | 0.0 | 0.02 | 0.23 | 0.23 | 80 | 1005.7 |
| 20260506005822 | 50 | 259 | 0.0 | 0.0 | 0.02 | 0.23 | 0.23 | 80 | 1005.7 |
| 20260506005334 | 50 | 259 | 0.0 | 0.0 | 0.02 | 0.23 | 0.23 | 80 | 1005.7 |
| 20260506004824 | 50 | 259 | 0.0 | 0.0 | 0.02 | 0.23 | 0.23 | 80 | 1005.8 |
| 20260506004336 | 50 | 259 | 0.0 | 0.0 | 0.02 | 0.23 | 0.23 | 80 | 1005.8 |
| 20260506003831 | 49 | 259 | 0.0 | 0.0 | 0.02 | 0.22 | 0.22 | 80 | 1005.8 |
| 20260506003337 | 50 | 259 | 0.0 | 0.0 | 0.02 | 0.22 | 0.22 | 80 | 1005.9 |
| 20260506002826 | 50 | 259 | 0.0 | 0.0 | 0.03 | 0.22 | 0.22 | 80 | 1005.9 |
| 20260506002314 | 50 | 259 | 0.0 | 0.0 | 0.03 | 0.22 | 0.22 | 80 | 1005.9 |
| 20260506001825 | 50 | 259 | 0.0 | 0.0 | 0.03 | 0.22 | 0.22 | 80 | 1005.9 |
| 20260506001317 | 50 | 259 | 0.0 | 0.0 | 0.04 | 0.22 | 0.22 | 80 | 1005.9 |
| 20260506000841 | 50 | 259 | 0.0 | 0.0 | 0.04 | 0.22 | 0.22 | 81 | 1005.9 |
| 20260506000330 | 50 | 259 | 0.0 | 0.0 | 0.04 | 0.21 | 0.21 | 81 | 1005.7 |
| 20260505235819 | 50 | 259 | 0.0 | 0.0 | 0.04 | 0.21 | 0.21 | 81 | 1005.7 |
| 20260505235339 | 50 | 259 | 0.0 | 0.0 | 0.04 | 0.21 | 0.21 | 81 | 1005.7 |
| 20260505234826 | 50 | 259 | 0.0 | 0.0 | 0.04 | 0.21 | 0.21 | 81 | 1005.7 |
| 20260505234332 | 50 | 262 | 0.0 | 0.0 | 0.04 | 0.21 | 0.21 | 81 | 1005.7 |
| 20260505233826 | 50 | 262 | 0.0 | 0.0 | 0.03 | 0.20 | 0.20 | 81 | 1005.7 |
| 20260505233337 | 50 | 262 | 0.0 | 0.0 | 0.03 | 0.20 | 0.20 | 81 | 1005.6 |
| 20260505232813 | 50 | 262 | 0.0 | 0.0 | 0.03 | 0.19 | 0.19 | 81 | 1005.6 |
| 20260505232321 | 50 | 262 | 0.0 | 0.0 | 0.03 | 0.19 | 0.19 | 82 | 1005.6 |
| 20260505231830 | 50 | 262 | 0.0 | 0.0 | 0.03 | 0.19 | 0.19 | 82 | 1005.6 |
| 20260505231354 | 50 | 262 | 0.0 | 0.0 | 0.02 | 0.18 | 0.18 | 81 | 1005.6 |
| 20260505230826 | 50 | 263 | 0.0 | 0.0 | 0.02 | 0.18 | 0.18 | 82 | 1005.6 |
| 20260505230318 | 50 | 263 | 0.0 | 0.0 | 0.01 | 0.17 | 0.17 | 82 | 1005.7 |
| 20260505225823 | 50 | 263 | 0.0 | 0.0 | 0.01 | 0.17 | 0.17 | 82 | 1005.7 |
| 20260505225336 | 50 | 263 | 0.0 | 0.0 | 0.01 | 0.17 | 0.17 | 82 | 1005.7 |
| 20260505224830 | 50 | 263 | 0.0 | 0.0 | 0.01 | 0.17 | 0.17 | 82 | 1005.5 |
| 20260505224321 | 50 | 263 | 0.0 | 0.0 | 0.01 | 0.17 | 0.17 | 82 | 1005.5 |
| 20260505223831 | 50 | 263 | 0.0 | 0.0 | 0.02 | 0.17 | 0.17 | 82 | 1005.5 |
| 20260505223327 | 50 | 263 | 0.0 | 0.0 | 0.02 | 0.17 | 0.17 | 82 | 1005.5 |
| 20260505222832 | 50 | 263 | 0.0 | 0.0 | 0.01 | 0.16 | 0.16 | 82 | 1005.5 |
| 20260505222321 | 50 | 263 | 0.0 | 0.0 | 0.01 | 0.16 | 0.16 | 82 | 1005.5 |
| 20260505221841 | 50 | 263 | 0.0 | 0.0 | 0.01 | 0.16 | 0.16 | 82 | 1005.4 |
| 20260505221332 | 50 | 263 | 0.0 | 0.0 | 0.02 | 0.16 | 0.16 | 81 | 1005.4 |
| 20260505220838 | 50 | 263 | 0.0 | 0.0 | 0.02 | 0.16 | 0.16 | 82 | 1005.4 |
| 20260505220324 | 50 | 263 | 0.0 | 0.0 | 0.03 | 0.16 | 0.16 | 82 | 1005.3 |
| 20260505215830 | 50 | 263 | 0.0 | 0.0 | 0.03 | 0.16 | 0.16 | 82 | 1005.3 |
| 20260505215340 | 50 | 263 | 0.0 | 0.0 | 0.04 | 0.16 | 0.16 | 82 | 1005.3 |
| 20260505214817 | 50 | 263 | 0.0 | 0.0 | 0.04 | 0.16 | 0.16 | 82 | 1005.3 |
| 20260505214325 | 50 | 263 | 0.0 | 1.7 | 0.04 | 0.16 | 0.16 | 82 | 1005.3 |
| 20260505213822 | 50 | 263 | 0.0 | 1.7 | 0.04 | 0.15 | 0.15 | 82 | 1005.3 |
| 20260505213330 | 50 | 263 | 0.0 | 1.7 | 0.04 | 0.15 | 0.15 | 82 | 1005.1 |
| 20260505212821 | 50 | 263 | 0.0 | 3.5 | 0.04 | 0.15 | 0.15 | 82 | 1005.1 |
| 20260505212316 | 50 | 263 | 0.0 | 3.5 | 0.04 | 0.15 | 0.15 | 82 | 1005.1 |
| 20260505211901 | 50 | 263 | 0.0 | 0.0 | 0.05 | 0.15 | 0.15 | 82 | 1005.7 |
| 20260505211331 | 50 | 263 | 0.0 | 4.3 | 0.04 | 0.14 | 0.14 | 82 | 1005.7 |
| 20260505210818 | 50 | 263 | 0.0 | 5.2 | 0.04 | 0.14 | 0.14 | 82 | 1005.7 |
| 20260505210320 | 50 | 262 | 0.9 | 5.2 | 0.04 | 0.13 | 0.13 | 82 | 1005.6 |
| 20260505205826 | 50 | 268 | 0.0 | 3.5 | 0.04 | 0.13 | 0.13 | 82 | 1005.6 |
| 20260505205317 | 51 | 268 | 0.0 | 3.5 | 0.03 | 0.12 | 0.12 | 82 | 1005.6 |
| 20260505204828 | 51 | 268 | 0.0 | 0.0 | 0.04 | 0.12 | 0.12 | 82 | 1005.6 |
| 20260505204317 | 51 | 268 | 0.0 | 3.5 | 0.04 | 0.12 | 0.12 | 82 | 1005.6 |
| 20260505203826 | 50 | 268 | 0.0 | 5.2 | 0.04 | 0.11 | 0.11 | 82 | 1005.6 |
| 20260505203348 | 51 | 268 | 0.9 | 5.2 | 0.04 | 0.11 | 0.11 | 82 | 1005.6 |
| 20260505202834 | 51 | 271 | 0.0 | 0.0 | 0.05 | 0.11 | 0.11 | 82 | 1005.6 |
| 20260505202344 | 51 | 271 | 0.0 | 3.5 | 0.06 | 0.11 | 0.11 | 82 | 1005.6 |
| 20260505201814 | 51 | 271 | 0.0 | 2.6 | 0.05 | 0.10 | 0.10 | 82 | 1005.6 |
| 20260505201312 | 51 | 271 | 0.0 | 0.9 | 0.06 | 0.10 | 0.10 | 82 | 1005.6 |
| 20260505200829 | 51 | 271 | 0.0 | 5.2 | 0.06 | 0.10 | 0.10 | 82 | 1005.6 |
| 20260505200317 | 51 | 271 | 0.9 | 5.2 | 0.06 | 0.09 | 0.09 | 82 | 1005.6 |
| 20260505195830 | 51 | 281 | 0.0 | 5.2 | 0.06 | 0.09 | 0.09 | 82 | 1005.6 |
| 20260505195347 | 51 | 281 | 0.9 | 5.2 | 0.06 | 0.09 | 0.09 | 82 | 1005.6 |
| 20260505194834 | 51 | 281 | 0.9 | 6.1 | 0.06 | 0.08 | 0.08 | 82 | 1006.1 |
| 20260505194318 | 52 | 295 | 0.9 | 7.8 | 0.06 | 0.08 | 0.08 | 82 | 1006.1 |
| 20260505193828 | 52 | 256 | 1.7 | 5.2 | 0.05 | 0.07 | 0.07 | 82 | 1006.1 |
| 20260505193403 | 52 | 256 | 1.7 | 5.2 | 0.05 | 0.07 | 0.07 | 81 | 1006.1 |
| 20260505192829 | 52 | 256 | 0.9 | 7.8 | 0.05 | 0.06 | 0.06 | 81 | 1006.1 |
| 20260505192314 | 53 | 254 | 0.9 | 7.8 | 0.04 | 0.05 | 0.05 | 80 | 1006.1 |
| 20260505191829 | 53 | 258 | 2.6 | 7.8 | 0.04 | 0.05 | 0.05 | 79 | 1006.0 |
| 20260505191332 | 53 | 261 | 0.9 | 7.8 | 0.03 | 0.04 | 0.04 | 79 | 1006.0 |
| 20260505190823 | 54 | 254 | 2.6 | 7.8 | 0.03 | 0.04 | 0.04 | 78 | 1006.0 |
| 20260505190332 | 54 | 257 | 4.3 | 7.8 | 0.02 | 0.03 | 0.03 | 76 | 1005.7 |
| 20260505185821 | 54 | 246 | 6.1 | 8.7 | 0.02 | 0.03 | 0.03 | 75 | 1005.7 |
| 20260505185324 | 55 | 242 | 4.3 | 8.7 | 0.02 | 0.03 | 0.03 | 74 | 1005.7 |
| 20260505184843 | 55 | 252 | 1.7 | 7.8 | 0.01 | 0.02 | 0.02 | 73 | 1005.5 |
| 20260505184344 | 55 | 264 | 2.6 | 7.0 | 0.01 | 0.02 | 0.02 | 71 | 1005.5 |
| 20260505183825 | 56 | 267 | 3.5 | 8.7 | 0.01 | 0.02 | 0.02 | 68 | 1005.5 |
| 20260505183315 | 56 | 240 | 5.2 | 8.7 | 0.01 | 0.02 | 0.02 | 66 | 1005.8 |
| 20260505182818 | 57 | 234 | 6.1 | 9.6 | 0.00 | 0.01 | 0.01 | 64 | 1005.8 |
| 20260505182327 | 57 | 224 | 5.2 | 9.6 | 0.00 | 0.01 | 0.01 | 64 | 1005.8 |
| 20260505181821 | 57 | 246 | 6.1 | 10.4 | 0.00 | 0.01 | 0.01 | 63 | 1005.1 |
| 20260505181344 | 57 | 242 | 5.2 | 10.4 | 0.00 | 0.01 | 0.01 | 63 | 1005.1 |
| 20260505180833 | 58 | 242 | 7.0 | 10.4 | 0.00 | 0.01 | 0.01 | 61 | 1005.1 |
| 20260505180316 | 58 | 209 | 4.3 | 8.7 | 0.00 | 0.01 | 0.01 | 61 | 1005.0 |
| 20260505175832 | 58 | 224 | 4.3 | 8.7 | 0.00 | 0.01 | 0.01 | 61 | 1005.0 |
| 20260505175318 | 58 | 223 | 2.6 | 7.8 | 0.00 | 0.01 | 0.01 | 60 | 1005.0 |
| 20260505174826 | 58 | 225 | 3.5 | 7.0 | 0.00 | 0.01 | 0.01 | 58 | 1004.7 |
| 20260505174315 | 58 | 229 | 4.3 | 7.8 | 0.00 | 0.01 | 0.01 | 57 | 1004.7 |
| 20260505173820 | 58 | 216 | 4.3 | 7.8 | 0.00 | 0.01 | 0.01 | 57 | 1004.7 |
| 20260505173341 | 58 | 244 | 0.9 | 7.8 | 0.00 | 0.01 | 0.01 | 56 | 1004.2 |
| 20260505172826 | 59 | 236 | 3.5 | 7.8 | 0.00 | 0.01 | 0.01 | 55 | 1004.2 |
| 20260505172328 | 59 | 245 | 4.3 | 7.0 | 0.00 | 0.01 | 0.01 | 55 | 1004.2 |
| 20260505171821 | 59 | 252 | 2.6 | 7.0 | 0.00 | 0.01 | 0.01 | 57 | 1005.0 |
| 20260505171313 | 58 | 270 | 3.5 | 7.0 | 0.00 | 0.01 | 0.01 | 56 | 1005.0 |
| 20260505170819 | 58 | 227 | 2.6 | 6.1 | 0.00 | 0.01 | 0.01 | 56 | 1005.0 |
| 20260505170331 | 58 | 228 | 5.2 | 9.6 | 0.00 | 0.01 | 0.01 | 54 | 1004.9 |
| 20260505165821 | 58 | 246 | 4.3 | 9.6 | 0.00 | 0.01 | 0.01 | 55 | 1004.9 |